Tracking 27112 objects as of 28-Mar-2023
HD Live streaming from Space Station
objects crossing your sky now

STARLINK-3952

Track STARLINK-3952 now!
10-day predictions
STARLINK-3952 is classified as:


NORAD ID: 52534
Int'l Code: 2022-051B
Perigee: 546.1 km
Apogee: 547.5 km
Inclination: 53.2 °
Period: 95.4 minutes
Semi major axis: 6917 km
RCS: Unknown
Launch date: May 13, 2022
Source: United States (US)
Launch site: AIR FORCE WESTERN TEST RANGE (AFWTR)
Your satellite tracking list
Your tracking list is empty




NASA's NSSDC Master Catalog

Two Line Element Set (TLE):
1 52534U 22051B   23086.85533100  .00022788  00000-0  14438-2 0  9992
2 52534  53.2161 287.7063 0001034 108.5080 251.6025 15.08877203 48792
Source of the keplerian elements: AFSPC